+ View the NASA Portal
+ Center for Near-Earth Object Studies
IMPORTANT:
The SSD Announcement email list is now available. Major changes are coming in the near future, including possible hostname and/or URL changes. To be notified of such changes, subscribe to this email list.
Please visit
this page
for more details.
Don't show this message again
JPL Small-Body Database Browser
Search:
[
help
]
117846 (2005 JU127)
Classification:
Main-belt Asteroid
SPK-ID:
2117846
[
Ephemeris
|
Orbit Diagram
|
Orbital Elements
|
Mission Design
|
Physical Parameters
|
Discovery Circumstances
|
Close-Approach Data
]
[ show orbit diagram ]
Orbital Elements at Epoch 2458600.5 (2019-Apr-27.0) TDB
Reference:
JPL 13
(heliocentric ecliptic J2000)
Element
Value
Uncertainty (1-sigma)
Units
e
.07578156095592757
5.8356e-08
a
2.646803089178655
1.8462e-08
au
q
2.446224219537726
1.52e-07
au
i
3.480178548980638
4.4346e-06
deg
node
114.0520242676464
0.00010449
deg
peri
87.5240673517095
0.00010947
deg
M
114.3991698966108
3.5645e-05
deg
t
p
2458100.694249568567
(2017-Dec-13.19424957)
0.00015394
TDB
period
1572.826711224646
4.31
1.6457e-05
4.506e-08
d
yr
n
.228887262297125
2.3949e-09
deg/d
Q
2.847381958819585
1.9861e-08
au
Orbit Determination Parameters
# obs. used (total)
333
data-arc span
8650 days (23.68 yr)
first obs. used
1996-02-16
last obs. used
2019-10-23
planetary ephem.
DE431
SB-pert. ephem.
SB431-N16
condition code
0
norm. resid. RMS
.56554
source
ORB
producer
Otto Matic
solution date
2019-Nov-07 13:55:36
Additional Information
Earth MOID
= 1.44631 au
Jupiter MOID
= 2.11454 au
T_jup
= 3.386
[ show covariance matrix ]
[
Ephemeris
|
Orbit Diagram
|
Orbital Elements
|
Mission Design
|
Physical Parameters
|
Discovery Circumstances
|
Close-Approach Data
]
Physical Parameter Table
Parameter
Symbol
Value
Units
Sigma
Reference
Notes
absolute magnitude
H
16.2
n/a
MPO449689
117846 (2005 JU127)
Discovered 2005-May-12 by LINEAR at Socorro
Reference:
20051019/Numbers.arc
Last Updated:
2005-10-26
[ show close-approach data ]
Alternate Designations
2005 JU127
= 2000 CN125
[
Ephemeris
|
Orbit Diagram
|
Orbital Elements
|
Mission Design
|
Physical Parameters
|
Discovery Circumstances
|
Close-Approach Data
]
2019-Dec-16 10:24 UT
(server date/time)
Site Manager:
Ryan S. Park
Webmaster
:
Alan B. Chamberlin